| time (UTC) | temp F | wind direction | speed MPH | gust MPH | rain 1hr in | rain 24hr in | rain mn in | humidity % | barometer mb |
| 20260505164025 | 60 | 129 | 2.0 | 10.0 | 0.00 | 0.00 | 0.00 | 51 | 1011.6 |
| 20260505163526 | 60 | 105 | 3.0 | 10.0 | 0.00 | 0.00 | 0.00 | 50 | 1011.7 |
| 20260505163043 | 60 | 0 | 2.0 | 8.0 | 0.00 | 0.00 | 0.00 | 51 | 1011.6 |
| 20260505162523 | 60 | 38 | 1.0 | 6.0 | 0.00 | 0.00 | 0.00 | 51 | 1011.7 |
| 20260505162024 | 60 | 162 | 2.0 | 5.0 | 0.00 | 0.00 | 0.00 | 52 | 1011.7 |
| 20260505161541 | 60 | 18 | 1.0 | 10.0 | 0.00 | 0.00 | 0.00 | 52 | 1011.6 |
| 20260505161026 | 60 | 22 | 2.0 | 10.0 | 0.00 | 0.00 | 0.00 | 52 | 1011.6 |
| 20260505160524 | 60 | 93 | 1.0 | 7.0 | 0.00 | 0.00 | 0.00 | 52 | 1011.5 |
| 20260505153037 | 61 | 126 | 2.0 | 7.0 | 0.00 | 0.00 | 0.00 | 50 | 1011.6 |
| 20260505152523 | 62 | 190 | 2.0 | 8.0 | 0.00 | 0.00 | 0.00 | 48 | 1011.6 |
| 20260505152027 | 62 | 162 | 1.0 | 8.0 | 0.00 | 0.00 | 0.00 | 49 | 1011.6 |
| 20260505151537 | 62 | 347 | 1.0 | 10.0 | 0.00 | 0.00 | 0.00 | 50 | 1011.6 |
| 20260505151025 | 62 | 344 | 2.0 | 10.0 | 0.00 | 0.00 | 0.00 | 49 | 1011.7 |
| 20260505150524 | 62 | 137 | 4.0 | 10.0 | 0.00 | 0.00 | 0.00 | 47 | 1011.7 |
| 20260505140524 | 62 | 78 | 2.0 | 9.0 | 0.00 | 0.00 | 0.00 | 53 | 1011.9 |
| 20260505130104 | 62 | 221 | 2.0 | 8.0 | 0.00 | 0.00 | 0.00 | 54 | 1012.0 |
| 20260505125023 | 62 | 93 | 2.0 | 9.0 | 0.00 | 0.00 | 0.00 | 55 | 1012.0 |
| 20260505124541 | 61 | 41 | 2.0 | 9.0 | 0.00 | 0.00 | 0.00 | 57 | 1012.0 |
| 20260505124023 | 61 | 319 | 1.0 | 9.0 | 0.00 | 0.00 | 0.00 | 57 | 1012.1 |
| 20260505123525 | 61 | 51 | 2.0 | 9.0 | 0.00 | 0.00 | 0.00 | 57 | 1012.0 |
| 20260505123043 | 61 | 38 | 1.0 | 9.0 | 0.00 | 0.00 | 0.00 | 57 | 1012.1 |
| 20260505122523 | 61 | 97 | 2.0 | 7.0 | 0.00 | 0.00 | 0.00 | 57 | 1012.1 |
| 20260505122024 | 62 | 68 | 2.0 | 7.0 | 0.00 | 0.00 | 0.00 | 56 | 1012.2 |
| 20260505121535 | 62 | 340 | 2.0 | 8.0 | 0.00 | 0.00 | 0.00 | 55 | 1012.1 |
| 20260505121024 | 62 | 225 | 3.0 | 8.0 | 0.00 | 0.00 | 0.00 | 54 | 1012.1 |
| 20260505120524 | 62 | 51 | 2.0 | 10.0 | 0.00 | 0.00 | 0.00 | 55 | 1012.1 |
| 20260505120039 | 61 | 48 | 2.0 | 10.0 | 0.00 | 0.00 | 0.00 | 56 | 1012.2 |
| 20260505115523 | 62 | 51 | 3.0 | 10.0 | 0.00 | 0.00 | 0.00 | 57 | 1012.1 |
| 20260505115023 | 61 | 305 | 2.0 | 8.0 | 0.00 | 0.00 | 0.00 | 59 | 1012.1 |
| 20260505114538 | 61 | 57 | 2.0 | 9.0 | 0.00 | 0.00 | 0.00 | 59 | 1012.1 |
| 20260505114024 | 61 | 24 | 2.0 | 9.0 | 0.00 | 0.00 | 0.00 | 58 | 1012.1 |
| 20260505113523 | 61 | 80 | 2.0 | 9.0 | 0.00 | 0.00 | 0.00 | 56 | 1012.2 |
| 20260505113044 | 61 | 9 | 2.0 | 9.0 | 0.00 | 0.00 | 0.00 | 59 | 1012.1 |
| 20260505112523 | 61 | 43 | 2.0 | 9.0 | 0.00 | 0.00 | 0.00 | 61 | 1012.1 |
| 20260505112023 | 60 | 300 | 2.0 | 9.0 | 0.00 | 0.00 | 0.00 | 59 | 1012.2 |
| 20260505111540 | 60 | 337 | 2.0 | 9.0 | 0.00 | 0.00 | 0.00 | 64 | 1012.1 |
| 20260505111023 | 60 | 93 | 2.0 | 9.0 | 0.00 | 0.00 | 0.00 | 65 | 1012.1 |
| 20260505110524 | 59 | 162 | 1.0 | 8.0 | 0.00 | 0.00 | 0.00 | 65 | 1012.1 |
| 20260505102023 | 60 | 93 | 3.0 | 11.0 | 0.00 | 0.00 | 0.00 | 66 | 1012.2 |
| 20260505101540 | 60 | 72 | 2.0 | 11.0 | 0.00 | 0.00 | 0.00 | 68 | 1012.1 |
| 20260505101023 | 60 | 341 | 2.0 | 9.0 | 0.00 | 0.00 | 0.00 | 66 | 1012.1 |
| 20260505100526 | 60 | 178 | 2.0 | 9.0 | 0.00 | 0.00 | 0.00 | 66 | 1012.1 |
| 20260505100037 | 60 | 265 | 2.0 | 9.0 | 0.00 | 0.00 | 0.00 | 65 | 1012.1 |
| 20260505095524 | 60 | 9 | 2.0 | 9.0 | 0.00 | 0.00 | 0.00 | 66 | 1012.1 |
| 20260505095023 | 60 | 66 | 2.0 | 9.0 | 0.00 | 0.00 | 0.00 | 69 | 1012.1 |
| 20260505094537 | 60 | 323 | 2.0 | 9.0 | 0.00 | 0.00 | 0.00 | 69 | 1012.1 |
| 20260505094023 | 60 | 268 | 2.0 | 9.0 | 0.00 | 0.00 | 0.00 | 68 | 1012.1 |
| 20260505093524 | 59 | 327 | 3.0 | 9.0 | 0.00 | 0.00 | 0.00 | 67 | 1012.1 |
| 20260505093036 | 60 | 49 | 2.0 | 9.0 | 0.00 | 0.00 | 0.00 | 66 | 1012.1 |
| 20260505092529 | 60 | 20 | 3.0 | 9.0 | 0.00 | 0.00 | 0.00 | 68 | 1012.1 |
| 20260505092023 | 60 | 46 | 3.0 | 9.0 | 0.00 | 0.00 | 0.00 | 70 | 1012.0 |
| 20260505091541 | 60 | 309 | 1.0 | 8.0 | 0.00 | 0.00 | 0.00 | 71 | 1012.2 |
| 20260505091028 | 59 | 280 | 2.0 | 13.0 | 0.00 | 0.00 | 0.00 | 70 | 1012.2 |
| 20260505090524 | 59 | 0 | 2.0 | 13.0 | 0.00 | 0.00 | 0.00 | 72 | 1012.2 |
| 20260505090041 | 59 | 9 | 3.0 | 11.0 | 0.00 | 0.00 | 0.00 | 71 | 1012.3 |
| 20260505085524 | 59 | 321 | 3.0 | 10.0 | 0.00 | 0.00 | 0.00 | 72 | 1012.4 |
| 20260505085024 | 59 | 259 | 3.0 | 10.0 | 0.00 | 0.00 | 0.00 | 74 | 1012.3 |
| 20260505084538 | 58 | 311 | 2.0 | 9.0 | 0.00 | 0.00 | 0.00 | 76 | 1012.3 |
| 20260505084023 | 57 | 332 | 3.0 | 9.0 | 0.00 | 0.00 | 0.00 | 78 | 1012.3 |
| 20260505083522 | 57 | 51 | 2.0 | 9.0 | 0.00 | 0.00 | 0.00 | 78 | 1012.5 |
| 20260505083036 | 56 | 291 | 2.0 | 9.0 | 0.00 | 0.00 | 0.00 | 79 | 1012.5 |
| 20260505082524 | 55 | 71 | 1.0 | 9.0 | 0.00 | 0.00 | 0.00 | 81 | 1012.5 |
| 20260505082026 | 55 | 309 | 2.0 | 9.0 | 0.00 | 0.00 | 0.00 | 80 | 1012.5 |
| 20260505081543 | 55 | 64 | 2.0 | 10.0 | 0.00 | 0.00 | 0.00 | 79 | 1012.5 |
| 20260505081024 | 55 | 38 | 2.0 | 10.0 | 0.00 | 0.00 | 0.00 | 80 | 1012.5 |
| 20260505080523 | 55 | 229 | 2.0 | 10.0 | 0.00 | 0.00 | 0.00 | 79 | 1012.5 |
| 20260505080044 | 55 | 200 | 2.0 | 8.0 | 0.00 | 0.00 | 0.00 | 80 | 1012.5 |
| 20260505075523 | 55 | 36 | 2.0 | 8.0 | 0.00 | 0.00 | 0.00 | 81 | 1012.5 |
| 20260505075025 | 55 | 131 | 2.0 | 8.0 | 0.00 | 0.00 | 0.00 | 81 | 1012.6 |
| 20260505074540 | 55 | 0 | 2.0 | 8.0 | 0.00 | 0.00 | 0.00 | 82 | 1012.5 |
| 20260505074023 | 55 | 185 | 2.0 | 9.0 | 0.00 | 0.00 | 0.00 | 83 | 1012.5 |
| 20260505073527 | 54 | 104 | 2.0 | 9.0 | 0.00 | 0.00 | 0.00 | 82 | 1012.6 |
| 20260505073046 | 54 | 16 | 2.0 | 9.0 | 0.00 | 0.00 | 0.00 | 83 | 1012.6 |
| 20260505072524 | 54 | 30 | 2.0 | 6.0 | 0.00 | 0.00 | 0.00 | 83 | 1012.7 |
| 20260505072023 | 54 | 80 | 1.0 | 8.0 | 0.00 | 0.00 | 0.00 | 83 | 1012.7 |
| 20260505071549 | 54 | 30 | 1.0 | 8.0 | 0.00 | 0.00 | 0.00 | 83 | 1012.7 |
| 20260505071023 | 54 | 330 | 2.0 | 10.0 | 0.00 | 0.00 | 0.00 | 84 | 1012.6 |
| 20260505070523 | 54 | 239 | 2.0 | 10.0 | 0.00 | 0.00 | 0.00 | 85 | 1012.7 |
| 20260505070036 | 53 | 150 | 2.0 | 10.0 | 0.00 | 0.00 | 0.00 | 87 | 1012.7 |
| 20260505065527 | 53 | 342 | 2.0 | 7.0 | 0.00 | 0.00 | 0.00 | 88 | 1012.6 |
| 20260505065026 | 52 | 325 | 1.0 | 6.0 | 0.00 | 0.00 | 0.00 | 89 | 1012.5 |
| 20260505064535 | 52 | 316 | 2.0 | 7.0 | 0.00 | 0.00 | 0.00 | 89 | 1012.5 |
| 20260505064026 | 51 | 309 | 1.0 | 7.0 | 0.00 | 0.00 | 0.00 | 90 | 1012.5 |
| 20260505063523 | 51 | 289 | 1.0 | 8.0 | 0.00 | 0.00 | 0.00 | 90 | 1012.5 |
| 20260505063038 | 51 | 9 | 2.0 | 8.0 | 0.00 | 0.00 | 0.00 | 90 | 1012.4 |
| 20260505062524 | 51 | 239 | 1.0 | 9.0 | 0.00 | 0.00 | 0.00 | 90 | 1012.6 |
| 20260505062024 | 51 | 26 | 1.0 | 9.0 | 0.00 | 0.00 | 0.00 | 91 | 1012.6 |
| 20260505061539 | 51 | 15 | 1.0 | 6.0 | 0.00 | 0.00 | 0.00 | 91 | 1012.8 |
| 20260505061023 | 51 | 309 | 1.0 | 6.0 | 0.00 | 0.00 | 0.00 | 92 | 1012.8 |
| 20260505060526 | 51 | 110 | 1.0 | 7.0 | 0.00 | 0.00 | 0.00 | 93 | 1012.8 |
| 20260505060039 | 50 | 323 | 1.0 | 7.0 | 0.00 | 0.00 | 0.00 | 93 | 1012.7 |
| 20260505055527 | 50 | 9 | 1.0 | 6.0 | 0.00 | 0.00 | 0.00 | 93 | 1012.6 |
| 20260505055023 | 50 | 46 | 2.0 | 5.0 | 0.00 | 0.00 | 0.00 | 94 | 1012.4 |
| 20260505054550 | 49 | 304 | 2.0 | 5.0 | 0.00 | 0.00 | 0.00 | 94 | 1012.3 |
| 20260505054025 | 49 | 38 | 1.0 | 5.0 | 0.00 | 0.00 | 0.00 | 94 | 1012.5 |
| 20260505053525 | 49 | 38 | 2.0 | 5.0 | 0.00 | 0.00 | 0.00 | 94 | 1012.5 |
| 20260505053054 | 49 | 137 | 1.0 | 5.0 | 0.00 | 0.00 | 0.00 | 94 | 1012.4 |
| 20260505052526 | 49 | 48 | 1.0 | 5.0 | 0.00 | 0.00 | 0.00 | 94 | 1012.4 |
| 20260505052024 | 49 | 75 | 1.0 | 5.0 | 0.00 | 0.00 | 0.00 | 94 | 1012.4 |
| 20260505051544 | 49 | 110 | 1.0 | 5.0 | 0.00 | 0.00 | 0.00 | 94 | 1012.4 |
| 20260505051023 | 49 | 9 | 1.0 | 5.0 | 0.00 | 0.00 | 0.00 | 94 | 1012.6 |
| 20260505050525 | 49 | 41 | 1.0 | 5.0 | 0.00 | 0.00 | 0.00 | 94 | 1012.4 |
| 20260505041536 | 49 | 239 | 1.0 | 5.0 | 0.00 | 0.00 | 0.00 | 94 | 1012.7 |
| 20260505041023 | 49 | 0 | 1.0 | 4.0 | 0.00 | 0.00 | 0.00 | 94 | 1012.8 |
| 20260505040527 | 49 | 34 | 1.0 | 6.0 | 0.00 | 0.00 | 0.00 | 94 | 1012.8 |
| 20260505040106 | 49 | 34 | 1.0 | 6.0 | 0.00 | 0.00 | 0.00 | 94 | 1012.9 |
| 20260505035523 | 49 | 232 | 1.0 | 6.0 | 0.00 | 0.00 | 0.00 | 94 | 1013.0 |
| 20260505035023 | 49 | 26 | 1.0 | 4.0 | 0.00 | 0.00 | 0.00 | 94 | 1013.0 |
| 20260505034540 | 49 | 0 | 1.0 | 4.0 | 0.00 | 0.00 | 0.00 | 94 | 1013.1 |
| 20260505034025 | 50 | 46 | 1.0 | 6.0 | 0.00 | 0.00 | 0.00 | 94 | 1013.1 |
| 20260505033523 | 50 | 0 | 1.0 | 6.0 | 0.00 | 0.00 | 0.00 | 94 | 1013.2 |
| 20260505033041 | 50 | 47 | 1.0 | 6.0 | 0.00 | 0.00 | 0.00 | 94 | 1013.2 |
| 20260505032526 | 50 | 316 | 1.0 | 4.0 | 0.00 | 0.00 | 0.00 | 94 | 1013.3 |
| 20260505032026 | 50 | 48 | 1.0 | 7.0 | 0.00 | 0.00 | 0.00 | 94 | 1013.3 |
| 20260505031536 | 50 | 137 | 1.0 | 7.0 | 0.00 | 0.00 | 0.00 | 94 | 1013.4 |
| 20260505031025 | 50 | 239 | 1.0 | 7.0 | 0.00 | 0.00 | 0.00 | 94 | 1013.4 |
| 20260505030523 | 50 | 93 | 0.0 | 3.0 | 0.00 | 0.00 | 0.00 | 94 | 1013.3 |
| 20260505030037 | 50 | 239 | 1.0 | 4.0 | 0.00 | 0.00 | 0.00 | 94 | 1013.2 |
| 20260505025525 | 50 | 0 | 1.0 | 6.0 | 0.00 | 0.00 | 0.00 | 94 | 1013.2 |
| 20260505025023 | 50 | 34 | 1.0 | 6.0 | 0.00 | 0.00 | 0.00 | 94 | 1013.3 |
| 20260505024540 | 50 | 131 | 1.0 | 5.0 | 0.00 | 0.00 | 0.00 | 94 | 1013.4 |
| 20260505024023 | 50 | 68 | 1.0 | 4.0 | 0.00 | 0.00 | 0.00 | 94 | 1013.3 |
| 20260505023523 | 50 | 70 | 1.0 | 3.0 | 0.00 | 0.00 | 0.00 | 94 | 1013.3 |
| 20260505023039 | 50 | 342 | 1.0 | 3.0 | 0.00 | 0.00 | 0.00 | 94 | 1013.3 |
| 20260505022522 | 50 | 178 | 1.0 | 4.0 | 0.00 | 0.00 | 0.00 | 94 | 1013.4 |
| 20260505022023 | 50 | 0 | 0.0 | 4.0 | 0.00 | 0.00 | 0.00 | 94 | 1013.5 |
| 20260505021538 | 50 | 330 | 1.0 | 4.0 | 0.00 | 0.00 | 0.00 | 94 | 1013.4 |
| 20260505021023 | 50 | 65 | 1.0 | 4.0 | 0.00 | 0.00 | 0.00 | 94 | 1013.5 |
| 20260505020523 | 50 | 0 | 1.0 | 3.0 | 0.00 | 0.00 | 0.00 | 94 | 1013.4 |
| 20260505020037 | 50 | 330 | 1.0 | 3.0 | 0.00 | 0.00 | 0.00 | 94 | 1013.4 |
| 20260505015523 | 50 | 309 | 1.0 | 4.0 | 0.00 | 0.00 | 0.00 | 94 | 1013.4 |
| 20260505015023 | 50 | 0 | 1.0 | 4.0 | 0.00 | 0.00 | 0.00 | 94 | 1013.5 |
| 20260505014536 | 50 | 51 | 1.0 | 4.0 | 0.00 | 0.00 | 0.00 | 94 | 1013.6 |
| 20260505014025 | 50 | 319 | 0.0 | 4.0 | 0.00 | 0.00 | 0.00 | 94 | 1013.6 |
| 20260505013523 | 50 | 0 | 1.0 | 5.0 | 0.00 | 0.00 | 0.00 | 94 | 1013.7 |
| 20260505013037 | 50 | 68 | 1.0 | 5.0 | 0.00 | 0.00 | 0.00 | 94 | 1013.7 |
| 20260505012526 | 50 | 9 | 1.0 | 5.0 | 0.00 | 0.00 | 0.00 | 94 | 1013.7 |
| 20260505012023 | 51 | 74 | 1.0 | 3.0 | 0.00 | 0.00 | 0.00 | 94 | 1013.7 |
| 20260505011541 | 50 | 13 | 1.0 | 3.0 | 0.00 | 0.00 | 0.00 | 94 | 1013.8 |
| 20260505011023 | 50 | 61 | 0.0 | 3.0 | 0.00 | 0.00 | 0.00 | 94 | 1013.9 |
| 20260505010522 | 50 | 44 | 1.0 | 4.0 | 0.00 | 0.00 | 0.00 | 94 | 1013.8 |
| 20260505010038 | 50 | 9 | 1.0 | 4.0 | 0.00 | 0.00 | 0.00 | 94 | 1013.8 |
| 20260505005527 | 50 | 226 | 1.0 | 4.0 | 0.00 | 0.00 | 0.00 | 93 | 1013.7 |
| 20260505005027 | 50 | 279 | 1.0 | 4.0 | 0.00 | 0.00 | 0.00 | 94 | 1013.7 |
| 20260505004541 | 51 | 32 | 1.0 | 4.0 | 0.00 | 0.00 | 0.00 | 94 | 1013.8 |
| 20260505004022 | 51 | 22 | 1.0 | 5.0 | 0.00 | 0.00 | 0.00 | 94 | 1013.8 |
| 20260505003524 | 51 | 83 | 1.0 | 5.0 | 0.00 | 0.00 | 0.00 | 94 | 1013.9 |
| 20260505003037 | 51 | 32 | 1.0 | 4.0 | 0.00 | 0.00 | 0.00 | 94 | 1014.1 |
| 20260505002523 | 51 | 239 | 1.0 | 4.0 | 0.00 | 0.00 | 0.00 | 94 | 1014.4 |
| 20260505002023 | 51 | 0 | 1.0 | 5.0 | 0.00 | 0.00 | 0.00 | 94 | 1014.4 |
| 20260505001537 | 51 | 0 | 1.0 | 6.0 | 0.00 | 0.00 | 0.00 | 94 | 1014.2 |
| 20260505001022 | 51 | 0 | 1.0 | 6.0 | 0.00 | 0.00 | 0.00 | 93 | 1014.2 |
| 20260505000523 | 51 | 30 | 2.0 | 5.0 | 0.00 | 0.00 | 0.00 | 93 | 1014.3 |
| 20260505000036 | 51 | 38 | 1.0 | 5.0 | 0.00 | 0.00 | 0.00 | 93 | 1014.3 |
| 20260504235523 | 51 | 292 | 1.0 | 5.0 | 0.00 | 0.00 | 0.00 | 93 | 1014.5 |
| 20260504235023 | 51 | 59 | 1.0 | 5.0 | 0.00 | 0.00 | 0.00 | 93 | 1014.5 |
| 20260504234543 | 51 | 22 | 1.0 | 5.0 | 0.00 | 0.00 | 0.00 | 93 | 1014.4 |
| 20260504234022 | 51 | 93 | 1.0 | 6.0 | 0.00 | 0.00 | 0.00 | 93 | 1014.3 |
| 20260504233522 | 51 | 80 | 2.0 | 7.0 | 0.00 | 0.00 | 0.00 | 92 | 1014.1 |
| 20260504233043 | 51 | 55 | 2.0 | 7.0 | 0.00 | 0.00 | 0.00 | 92 | 1014.1 |
| 20260504232523 | 52 | 48 | 1.0 | 8.0 | 0.00 | 0.00 | 0.00 | 93 | 1014.2 |
| 20260504232023 | 52 | 128 | 2.0 | 8.0 | 0.00 | 0.00 | 0.00 | 92 | 1014.2 |
| 20260504231541 | 52 | 0 | 1.0 | 6.0 | 0.00 | 0.00 | 0.00 | 92 | 1014.1 |
| 20260504231023 | 52 | 221 | 1.0 | 6.0 | 0.00 | 0.00 | 0.00 | 92 | 1014.1 |
| 20260504230523 | 52 | 9 | 0.0 | 4.0 | 0.00 | 0.00 | 0.00 | 92 | 1014.1 |
| 20260504230037 | 52 | 43 | 1.0 | 5.0 | 0.00 | 0.00 | 0.00 | 92 | 1014.1 |
| 20260504225526 | 52 | 83 | 1.0 | 6.0 | 0.00 | 0.00 | 0.00 | 92 | 1014.1 |
| 20260504225023 | 52 | 141 | 2.0 | 6.0 | 0.00 | 0.00 | 0.00 | 92 | 1014.2 |
| 20260504224536 | 52 | 72 | 1.0 | 6.0 | 0.00 | 0.00 | 0.00 | 92 | 1014.2 |
| 20260504224024 | 53 | 0 | 1.0 | 6.0 | 0.00 | 0.00 | 0.00 | 92 | 1014.2 |
| 20260504223524 | 53 | 57 | 1.0 | 7.0 | 0.00 | 0.00 | 0.00 | 92 | 1014.2 |
| 20260504223040 | 53 | 93 | 1.0 | 7.0 | 0.00 | 0.00 | 0.00 | 92 | 1014.3 |
| 20260504222522 | 53 | 115 | 2.0 | 5.0 | 0.00 | 0.00 | 0.00 | 92 | 1014.4 |
| 20260504222025 | 53 | 59 | 2.0 | 4.0 | 0.00 | 0.00 | 0.00 | 93 | 1014.5 |
| 20260504221541 | 53 | 120 | 1.0 | 5.0 | 0.00 | 0.00 | 0.00 | 93 | 1014.5 |
| 20260504221022 | 53 | 51 | 1.0 | 6.0 | 0.00 | 0.00 | 0.00 | 93 | 1014.5 |
| 20260504220522 | 53 | 68 | 1.0 | 8.0 | 0.00 | 0.00 | 0.00 | 93 | 1014.6 |
| 20260504220048 | 53 | 93 | 2.0 | 8.0 | 0.00 | 0.00 | 0.00 | 93 | 1014.7 |
| 20260504215522 | 53 | 74 | 3.0 | 8.0 | 0.00 | 0.00 | 0.00 | 93 | 1014.6 |
| 20260504215023 | 53 | 0 | 2.0 | 6.0 | 0.00 | 0.00 | 0.00 | 94 | 1014.7 |
| 20260504214548 | 53 | 76 | 1.0 | 5.0 | 0.00 | 0.00 | 0.00 | 94 | 1014.6 |
| 20260504214023 | 53 | 72 | 1.0 | 6.0 | 0.00 | 0.00 | 0.00 | 94 | 1014.6 |
| 20260504213523 | 53 | 26 | 1.0 | 6.0 | 0.00 | 0.00 | 0.00 | 94 | 1014.6 |
| 20260504213047 | 53 | 49 | 1.0 | 6.0 | 0.00 | 0.00 | 0.00 | 94 | 1014.7 |
| 20260504212523 | 53 | 0 | 1.0 | 4.0 | 0.00 | 0.00 | 0.00 | 94 | 1014.7 |
| 20260504212022 | 53 | 26 | 0.0 | 4.0 | 0.00 | 0.00 | 0.00 | 94 | 1014.7 |
| 20260504211537 | 53 | 38 | 1.0 | 3.0 | 0.00 | 0.00 | 0.00 | 94 | 1014.6 |
| 20260504211023 | 53 | 26 | 0.0 | 2.0 | 0.00 | 0.00 | 0.00 | 94 | 1014.6 |
| 20260504210523 | 53 | 0 | 0.0 | 3.0 | 0.00 | 0.00 | 0.00 | 94 | 1014.7 |
| 20260504210034 | 53 | 0 | 0.0 | 3.0 | 0.00 | 0.00 | 0.00 | 94 | 1014.5 |
| 20260504205523 | 53 | 341 | 1.0 | 3.0 | 0.00 | 0.00 | 0.00 | 94 | 1014.5 |
| 20260504205025 | 53 | 309 | 0.0 | 3.0 | 0.00 | 0.00 | 0.00 | 94 | 1014.5 |
| 20260504204539 | 53 | 287 | 1.0 | 3.0 | 0.00 | 0.00 | 0.00 | 94 | 1014.6 |
| 20260504204025 | 53 | 9 | 1.0 | 3.0 | 0.00 | 0.00 | 0.00 | 94 | 1014.5 |
| 20260504203525 | 53 | 291 | 1.0 | 3.0 | 0.00 | 0.00 | 0.00 | 94 | 1014.6 |
| 20260504203038 | 52 | 298 | 1.0 | 3.0 | 0.00 | 0.00 | 0.00 | 94 | 1014.6 |
| 20260504202523 | 52 | 0 | 0.0 | 3.0 | 0.00 | 0.00 | 0.00 | 93 | 1014.6 |
| 20260504202025 | 52 | 0 | 0.0 | 3.0 | 0.00 | 0.00 | 0.00 | 93 | 1014.6 |
| 20260504201538 | 52 | 0 | 1.0 | 3.0 | 0.00 | 0.00 | 0.00 | 93 | 1014.6 |
| 20260504201026 | 52 | 266 | 1.0 | 2.0 | 0.00 | 0.00 | 0.00 | 92 | 1014.5 |
| 20260504200523 | 52 | 255 | 0.0 | 3.0 | 0.00 | 0.00 | 0.00 | 92 | 1014.4 |
| 20260504200042 | 52 | 0 | 0.0 | 3.0 | 0.00 | 0.00 | 0.00 | 92 | 1014.3 |
| 20260504195522 | 53 | 0 | 0.0 | 2.0 | 0.00 | 0.00 | 0.00 | 91 | 1014.4 |
| 20260504195023 | 53 | 0 | 0.0 | 1.0 | 0.00 | 0.00 | 0.00 | 91 | 1014.4 |
| 20260504194540 | 53 | 0 | 0.0 | 2.0 | 0.00 | 0.00 | 0.00 | 91 | 1014.4 |
| 20260504194025 | 53 | 0 | 0.0 | 2.0 | 0.00 | 0.00 | 0.00 | 91 | 1014.3 |
| 20260504193523 | 53 | 0 | 0.0 | 2.0 | 0.00 | 0.00 | 0.00 | 91 | 1014.3 |
| 20260504193040 | 53 | 265 | 1.0 | 2.0 | 0.00 | 0.00 | 0.00 | 91 | 1014.3 |
| 20260504192522 | 54 | 0 | 0.0 | 2.0 | 0.00 | 0.00 | 0.00 | 90 | 1014.2 |
| 20260504192022 | 54 | 0 | 0.0 | 2.0 | 0.00 | 0.00 | 0.00 | 90 | 1014.2 |
| 20260504191551 | 54 | 309 | 0.0 | 2.0 | 0.00 | 0.00 | 0.00 | 90 | 1014.1 |
| 20260504191027 | 54 | 137 | 0.0 | 2.0 | 0.00 | 0.00 | 0.00 | 90 | 1014.1 |
| 20260504190523 | 55 | 0 | 0.0 | 2.0 | 0.00 | 0.00 | 0.00 | 90 | 1014.1 |
| 20260504190043 | 55 | 309 | 0.0 | 2.0 | 0.00 | 0.00 | 0.00 | 89 | 1014.0 |
| 20260504185523 | 55 | 51 | 0.0 | 3.0 | 0.00 | 0.00 | 0.00 | 89 | 1014.0 |
| 20260504185022 | 55 | 0 | 0.0 | 3.0 | 0.00 | 0.00 | 0.00 | 89 | 1014.0 |
| 20260504184550 | 55 | 334 | 0.0 | 3.0 | 0.00 | 0.00 | 0.00 | 89 | 1013.9 |
| 20260504184025 | 55 | 0 | 1.0 | 2.0 | 0.00 | 0.00 | 0.00 | 89 | 1014.0 |
| 20260504183527 | 56 | 0 | 0.0 | 2.0 | 0.00 | 0.00 | 0.00 | 89 | 1014.0 |
| 20260504183044 | 56 | 193 | 0.0 | 2.0 | 0.00 | 0.00 | 0.00 | 89 | 1014.0 |
| 20260504182522 | 56 | 303 | 0.0 | 3.0 | 0.00 | 0.00 | 0.00 | 89 | 1014.1 |
| 20260504182026 | 56 | 239 | 0.0 | 3.0 | 0.00 | 0.00 | 0.00 | 89 | 1014.0 |
| 20260504181546 | 56 | 265 | 1.0 | 3.0 | 0.00 | 0.00 | 0.00 | 88 | 1014.0 |
| 20260504181023 | 56 | 248 | 0.0 | 3.0 | 0.00 | 0.00 | 0.00 | 88 | 1014.0 |
| 20260504180523 | 56 | 319 | 0.0 | 3.0 | 0.00 | 0.00 | 0.00 | 88 | 1014.0 |
| 20260504180039 | 56 | 221 | 1.0 | 3.0 | 0.00 | 0.00 | 0.00 | 88 | 1014.0 |
| 20260504175522 | 57 | 93 | 0.0 | 3.0 | 0.00 | 0.00 | 0.00 | 88 | 1014.1 |
| 20260504175022 | 56 | 0 | 0.0 | 3.0 | 0.00 | 0.00 | 0.00 | 88 | 1014.1 |
| 20260504174538 | 57 | 296 | 1.0 | 4.0 | 0.00 | 0.00 | 0.00 | 88 | 1013.9 |
| 20260504174023 | 57 | 34 | 1.0 | 4.0 | 0.00 | 0.00 | 0.00 | 88 | 1014.0 |
| 20260504173523 | 56 | 309 | 1.0 | 4.0 | 0.00 | 0.00 | 0.00 | 89 | 1014.0 |
| 20260504173037 | 56 | 251 | 1.0 | 4.0 | 0.00 | 0.00 | 0.00 | 89 | 1014.1 |
| 20260504172525 | 56 | 239 | 1.0 | 4.0 | 0.00 | 0.00 | 0.00 | 89 | 1014.0 |
| 20260504172023 | 56 | 247 | 0.0 | 4.0 | 0.00 | 0.00 | 0.00 | 89 | 1014.1 |
| 20260504171536 | 56 | 137 | 1.0 | 4.0 | 0.00 | 0.00 | 0.00 | 89 | 1014.0 |
| 20260504171023 | 56 | 265 | 1.0 | 4.0 | 0.00 | 0.00 | 0.00 | 89 | 1014.0 |
| 20260504170525 | 56 | 309 | 1.0 | 4.0 | 0.00 | 0.00 | 0.00 | 88 | 1014.0 |